Marshfield, WI

9:50 AM CDT on September 25, 2017 (GMT -0500)
Marshfield Municipal

Weather History for KMFI - May, 2012

Change the Weather History Date:

Friday, May 11, 2012

  Actual Average Record
Temperature  
Mean Temperature 60 °F -  
Max Temperature 77 °F 68 °F 85 °F (1991)
Min Temperature 45 °F 43 °F 24 °F (1925)
Degree Days  
Heating Degree Days 5    
Growing Degree Days 10 (Base 50)    
Moisture  
Dew Point 47 °F    
Average Humidity 64    
Maximum Humidity 80    
Minimum Humidity 48    
Precipitation  
Precipitation 0.00 in - - ()
Sea Level Pressure  
Sea Level Pressure 29.99 in    
Wind  
Wind Speed 9 mph (SSW)    
Max Wind Speed 22 mph    
Max Gust Speed 30 mph    
Visibility 10 miles    
Events Rain    
Averages and records for this station are not official NWS values.
T = Trace of Precipitation, MM = Missing Value Source: NWS Daily Summary

Daily Weather History Graph

Daily Weather History Graph

Search for Another Location

Airport or City:

Trip Planner

Search our weather history database for the weather conditions in past years. The results will help you decide how hot, cold, wet, or windy it might be!

Date:

Astronomy

May. 11, 2012 Rise Set
Actual Time 5:36 AM CDT 8:18 PM CDT
Civil Twilight 5:03 AM CDT 8:51 PM CDT
Nautical Twilight 4:21 AM CDT 9:34 PM CDT
Astronomical Twilight 3:32 AM CDT 10:22 PM CDT
Moon 12:55 AM CDT (5/11) 11:12 AM CDT (5/11)
Length of Visible Light 15h 48m
Length of Day
14h 41m
Waning Gibbous, 63% of the Moon is Illuminated
May 11
Waning Gibbous
May 12
Last Quarter
May 20
New
May 28
First Quarter
Jun 4
Full

Hourly Weather History & Observations

Time (CDT) Temp. Windchill Dew Point Humidity Pressure Visibility Wind Dir Wind Speed Gust Speed Precip Events Conditions
12:54 AM 46.9 °F - 39.9 °F 77% 29.97 in 10.0 mi South 5.8 mph - N/A   Clear
1:54 AM 48.9 °F - 39.0 °F 69% 29.96 in 10.0 mi South 3.5 mph - N/A   Clear
2:54 AM 46.0 °F 43.1 °F 39.0 °F 76% 29.98 in 10.0 mi South 5.8 mph - N/A   Clear
3:54 AM 46.0 °F 42.5 °F 39.9 °F 79% 29.99 in 10.0 mi South 6.9 mph - N/A   Clear
4:54 AM 45.0 °F 41.2 °F 39.0 °F 80% 29.99 in 10.0 mi South 6.9 mph - N/A   Clear
5:54 AM 46.0 °F 41.9 °F 39.0 °F 76% 29.98 in 10.0 mi South 8.1 mph - N/A   Clear
6:54 AM 50.0 °F - 41.0 °F 71% 29.97 in 10.0 mi South 9.2 mph - N/A   Partly Cloudy
7:54 AM 55.0 °F - 42.1 °F 62% 29.97 in 10.0 mi South 10.4 mph - N/A   Mostly Cloudy
8:54 AM 61.0 °F - 45.0 °F 56% 29.96 in 10.0 mi South 11.5 mph - N/A   Clear
9:54 AM 64.9 °F - 46.0 °F 50% 29.95 in 10.0 mi SSW 15.0 mph 24.2 mph N/A   Clear
10:54 AM 69.1 °F - 50.0 °F 51% 29.95 in 10.0 mi South 10.4 mph 19.6 mph N/A   Clear
11:54 AM 71.1 °F - 51.1 °F 49% 29.94 in 10.0 mi South 16.1 mph - N/A   Clear
12:54 PM 73.0 °F - 53.1 °F 49% 29.93 in 10.0 mi SSW 12.7 mph - N/A   Clear
1:54 PM 75.0 °F - 54.0 °F 48% 29.93 in 10.0 mi South 16.1 mph 20.7 mph N/A   Partly Cloudy
2:54 PM 73.9 °F - 53.1 °F 48% 29.94 in 10.0 mi SSW 11.5 mph - N/A   Overcast
3:54 PM 73.9 °F - 55.0 °F 52% 29.95 in 10.0 mi WSW 8.1 mph - N/A   Overcast
4:54 PM 73.9 °F - 55.9 °F 53% 29.95 in 10.0 mi West 6.9 mph - N/A   Overcast
5:54 PM 73.0 °F - 57.0 °F 57% 29.96 in 10.0 mi NW 9.2 mph - N/A   Overcast
6:54 PM 66.9 °F - 55.0 °F 66% 29.99 in 10.0 mi NW 21.9 mph - N/A   Overcast
7:54 PM 61.0 °F - 51.1 °F 70% 30.05 in 10.0 mi NW 18.4 mph 29.9 mph N/A   Overcast
8:54 PM 57.9 °F - 51.1 °F 78% 30.08 in 10.0 mi NNW 15.0 mph 25.3 mph 0.00 in Rain Light Rain
9:54 PM 55.0 °F - 46.9 °F 74% 30.12 in 10.0 mi North 16.1 mph 24.2 mph 0.00 in   Overcast
10:54 PM 54.0 °F - 46.0 °F 75% 30.14 in 10.0 mi North 8.1 mph - N/A   Overcast
11:54 PM 54.0 °F - 46.0 °F 75% 30.16 in 10.0 mi NNW 5.8 mph - N/A   Overcast